Location: B?ogocice
(50.2413°N, 20.2361°E)
Time: 00:33:59
(UTC+00:00)

GEOS 3 Rocket - Pass Details

Date: 15 June 2024
Orbit: 785 x 831 km, 115.0° (Epoch: 18 July)

Event Time Altitude Azimuth Distance (km) Brightness Sun altitude
Rises 00:09:26 0° 40° (NE) 3,339 8.3 -13.8°
Reaches altitude 10° 00:11:47 10° 36° (NE) 2,398 7.4 -13.7°
Maximum altitude 00:16:49 53° 321° (NW) 976 4.2 -13.4°
Drops below altitude 10° 00:21:47 10° 246° (WSW) 2,359 5.6 -13.0°
Enters shadow 00:21:52 10° 245° (WSW) 2,392 5.6 -13.0°
